20040712,213544,0,NaN,NaN,21.119,33.502,NaN,NaN
20040712,213615,31,NaN,NaN,21.126,33.502,NaN,NaN
20040712,213645,61,NaN,NaN,21.132,33.501,NaN,NaN
20040712,213714,90,NaN,NaN,21.125,33.503,NaN,NaN
20040712,213744,120,NaN,NaN,21.119,33.503,NaN,NaN
20040712,213814,150,NaN,NaN,21.113,33.503,NaN,NaN
20040712,213845,181,NaN,NaN,21.119,33.503,NaN,NaN
20040712,213915,211,NaN,NaN,21.120,33.503,NaN,NaN
20040712,213944,240,NaN,NaN,21.118,33.502,NaN,NaN
20040712,214014,270,NaN,NaN,21.123,33.504,NaN,NaN
20040712,214045,301,NaN,NaN,21.123,33.503,NaN,NaN
20040712,214115,331,NaN,NaN,21.112,33.503,NaN,NaN
20040712,214144,360,NaN,NaN,21.108,33.503,NaN,NaN
20040712,214214,390,NaN,NaN,21.111,33.503,NaN,NaN
20040712,214244,420,NaN,NaN,21.126,33.502,NaN,NaN
20040712,214315,451,NaN,NaN,21.138,33.503,NaN,NaN
20040712,214345,481,NaN,NaN,21.145,33.503,NaN,NaN
20040712,214414,510,NaN,NaN,21.145,33.503,NaN,NaN
20040712,214444,540,NaN,NaN,21.149,33.504,NaN,NaN
20040712,214515,571,NaN,NaN,21.147,33.505,NaN,NaN
20040712,214545,601,NaN,NaN,21.157,33.503,NaN,NaN
20040712,214614,630,NaN,NaN,21.161,33.504,NaN,NaN
20040712,214644,660,NaN,NaN,21.169,33.504,NaN,NaN
20040712,214714,690,NaN,NaN,21.179,33.505,NaN,NaN
20040712,214745,721,NaN,NaN,21.187,33.504,NaN,NaN
20040712,214815,751,NaN,NaN,21.197,33.506,NaN,NaN
20040712,214844,780,32.627667,-117.310167,21.198,33.506,NaN,NaN
20040712,214914,810,32.627000,-117.309667,21.199,33.506,NaN,NaN
20040712,214945,841,32.626167,-117.309167,21.198,33.508,NaN,NaN
20040712,215015,871,32.625167,-117.308500,21.200,33.506,NaN,NaN
20040712,215044,900,32.624167,-117.307833,21.184,33.508,NaN,NaN
20040712,215114,930,32.623167,-117.307167,21.174,33.507,NaN,NaN
20040712,215144,960,32.622167,-117.306500,21.179,33.508,NaN,NaN
20040712,215215,991,32.621000,-117.305667,21.202,33.506,NaN,NaN
20040712,215245,1021,32.619833,-117.305000,21.198,33.510,NaN,NaN
20040712,215314,1050,32.618667,-117.304167,21.174,33.509,NaN,NaN
20040712,215344,1080,32.617500,-117.303333,21.190,33.508,NaN,NaN
20040712,215415,1111,32.616167,-117.302500,21.216,33.508,NaN,NaN
20040712,215445,1141,32.615000,-117.301667,21.241,33.508,NaN,NaN
20040712,215514,1170,32.613833,-117.300833,21.261,33.509,NaN,NaN
20040712,215544,1200,32.612500,-117.300167,21.267,33.510,NaN,NaN
20040712,215615,1231,32.611333,-117.299333,21.286,33.510,NaN,NaN
20040712,215645,1261,32.610667,-117.298167,21.273,33.512,NaN,NaN
20040712,215715,1291,32.611000,-117.297167,21.275,33.512,NaN,NaN
20040712,215744,1320,32.611667,-117.296000,21.285,33.513,NaN,NaN
20040712,215814,1350,32.612500,-117.294833,21.275,33.516,NaN,NaN
20040712,215845,1381,32.613333,-117.293667,21.255,33.518,NaN,NaN
20040712,215915,1411,32.614000,-117.292333,21.255,33.517,NaN,NaN
20040712,215944,1440,32.614167,-117.291000,21.267,33.519,NaN,NaN
20040712,220014,1470,32.613333,-117.290000,21.276,33.520,NaN,NaN
20040712,220044,1500,32.612333,-117.289000,21.307,33.523,NaN,NaN
20040712,220115,1531,32.611333,-117.288000,21.340,33.523,NaN,NaN
20040712,220145,1561,32.610333,-117.287000,21.379,33.520,NaN,NaN
20040712,220214,1590,32.610167,-117.285833,21.386,33.523,NaN,NaN
20040712,220244,1620,32.610667,-117.284667,21.399,33.523,NaN,NaN
20040712,220315,1651,32.611333,-117.283500,21.370,33.524,NaN,NaN
20040712,220345,1681,32.612167,-117.282333,21.321,33.521,NaN,NaN
20040712,220414,1710,32.613000,-117.281167,21.296,33.518,NaN,NaN
20040712,220444,1740,32.613667,-117.279833,21.275,33.518,NaN,NaN
20040712,220514,1770,32.614000,-117.279000,21.290,33.514,NaN,NaN
20040712,220545,1801,32.614000,-117.278500,21.286,33.517,NaN,NaN
20040712,220615,1831,32.614000,-117.278500,21.233,33.520,NaN,NaN
20040712,220644,1860,32.613833,-117.278500,20.978,33.520,NaN,NaN
20040712,220714,1890,32.613833,-117.278500,20.398,33.526,NaN,NaN
20040712,220745,1921,32.613833,-117.278333,20.300,33.473,NaN,NaN
20040712,220815,1951,32.613833,-117.278333,20.763,33.468,NaN,NaN
20040712,220844,1980,32.614000,-117.278167,20.997,33.497,NaN,NaN
20040712,220914,2010,32.614000,-117.278000,21.163,33.505,NaN,NaN
20040712,220944,2040,32.614000,-117.278000,21.229,33.509,NaN,NaN
20040712,221015,2071,32.614000,-117.277833,21.249,33.515,NaN,NaN
20040712,221045,2101,32.614000,-117.277333,21.275,33.514,NaN,NaN
20040712,221114,2130,32.613833,-117.277167,21.285,33.517,NaN,NaN
20040712,221144,2160,32.613667,-117.276833,21.275,33.515,NaN,NaN
20040712,221215,2191,32.613667,-117.276500,21.277,33.516,NaN,NaN
20040712,221245,2221,32.613667,-117.276000,21.295,33.515,NaN,NaN
20040712,221314,2250,32.613833,-117.275667,21.292,33.517,NaN,NaN
20040712,221344,2280,32.614000,-117.275167,21.284,33.516,NaN,NaN
20040712,221414,2310,32.614167,-117.274667,21.272,33.516,NaN,NaN
20040712,221445,2341,32.614333,-117.274167,21.245,33.517,NaN,NaN
20040712,221515,2371,32.614500,-117.273667,21.222,33.515,NaN,NaN
20040712,221544,2400,32.614833,-117.273000,21.208,33.515,NaN,NaN
20040712,221614,2430,32.615167,-117.272167,21.210,33.515,NaN,NaN
20040712,221645,2461,32.615500,-117.271500,21.195,33.514,NaN,NaN
20040712,221715,2491,32.616000,-117.270667,21.201,33.513,NaN,NaN
20040712,221744,2520,32.616333,-117.269833,21.208,33.513,NaN,NaN
20040712,221814,2550,32.616667,-117.269000,21.198,33.514,NaN,NaN
20040712,221845,2581,32.617167,-117.268000,21.198,33.512,NaN,NaN
20040712,221915,2611,32.617500,-117.267167,21.210,33.512,NaN,NaN
20040712,221945,2641,32.617667,-117.266167,21.193,33.515,NaN,NaN
20040712,222014,2670,32.618167,-117.265333,21.168,33.513,NaN,NaN
20040712,222044,2700,32.618500,-117.264333,21.158,33.513,NaN,NaN
20040712,222115,2731,32.618833,-117.263500,21.119,33.514,NaN,NaN
20040712,222145,2761,32.619333,-117.262667,21.156,33.510,NaN,NaN
20040712,222214,2790,32.619667,-117.261833,21.176,33.513,NaN,NaN
20040712,222244,2820,32.620000,-117.260833,21.144,33.515,NaN,NaN
20040712,222314,2850,32.620500,-117.260000,21.071,33.516,NaN,NaN
20040712,222345,2881,32.620833,-117.259167,21.010,33.508,NaN,NaN
20040712,222415,2911,32.621167,-117.258167,20.985,33.508,NaN,NaN
20040712,222444,2940,32.621500,-117.257333,20.921,33.510,NaN,NaN
20040712,222514,2970,32.622000,-117.256333,20.846,33.507,NaN,NaN
20040712,222545,3001,32.622333,-117.255500,20.775,33.508,NaN,NaN
20040712,222615,3031,32.622667,-117.254667,20.737,33.503,NaN,NaN
20040712,222644,3060,32.623000,-117.254000,20.700,33.508,NaN,NaN
20040712,222714,3090,32.623167,-117.253333,20.690,33.506,NaN,NaN
20040712,222744,3120,32.623333,-117.252833,20.686,33.506,NaN,NaN
20040712,222815,3151,32.623500,-117.252500,20.667,33.508,NaN,NaN
20040712,222845,3181,32.623667,-117.252000,20.633,33.507,NaN,NaN
20040712,222914,3210,32.623667,-117.251667,20.603,33.505,NaN,NaN
20040712,222944,3240,32.623833,-117.251333,20.576,33.507,NaN,NaN
20040712,223015,3271,32.623833,-117.251167,20.554,33.505,NaN,NaN
20040712,223045,3301,32.623833,-117.251000,20.513,33.507,NaN,NaN
20040712,223114,3330,32.623833,-117.250833,20.499,33.503,NaN,NaN
20040712,223144,3360,32.623833,-117.250667,20.586,33.500,NaN,NaN
20040712,223214,3390,32.623833,-117.250667,20.642,33.506,NaN,NaN
20040712,223245,3421,32.623833,-117.250500,20.666,33.507,NaN,NaN
20040712,223315,3451,32.623833,-117.250333,20.669,33.509,NaN,NaN
20040712,223344,3480,32.623833,-117.250333,20.662,33.508,NaN,NaN
20040712,223414,3510,32.623833,-117.250167,20.659,33.508,NaN,NaN
20040712,223445,3541,32.623667,-117.250000,20.650,33.509,NaN,NaN
20040712,223515,3571,32.623833,-117.249833,20.648,33.508,NaN,NaN
20040712,223544,3600,32.623833,-117.249667,20.653,33.508,NaN,NaN
20040712,223614,3630,32.623833,-117.249667,20.641,33.508,NaN,NaN
20040712,223644,3660,32.624000,-117.249500,20.638,33.507,NaN,NaN
20040712,223715,3691,32.624000,-117.249333,20.617,33.507,NaN,NaN
20040712,223745,3721,32.624000,-117.249333,20.618,33.505,NaN,NaN
20040712,223814,3750,32.624000,-117.249167,20.626,33.506,NaN,NaN
20040712,223844,3780,32.624000,-117.249167,20.614,33.507,NaN,NaN
20040712,223915,3811,32.624000,-117.249000,20.604,33.506,NaN,NaN
20040712,223945,3841,32.624000,-117.248833,20.591,33.508,NaN,NaN
20040712,224014,3870,32.623833,-117.248667,20.522,33.512,NaN,NaN
20040712,224044,3900,32.623833,-117.248500,20.545,33.504,NaN,NaN
20040712,224115,3931,32.623833,-117.248500,20.565,33.504,NaN,NaN
20040712,224145,3961,32.624000,-117.248167,20.559,33.505,NaN,NaN
20040712,224215,3991,32.624167,-117.248167,20.536,33.506,NaN,NaN
20040712,224244,4020,32.624500,-117.248000,20.519,33.505,NaN,NaN
20040712,224314,4050,32.624667,-117.248000,20.507,33.503,NaN,NaN
20040712,224345,4081,32.624667,-117.247833,20.498,33.503,NaN,NaN
20040712,224415,4111,32.624833,-117.247833,20.482,33.503,NaN,NaN
20040712,224444,4140,32.624833,-117.247833,20.475,33.502,NaN,NaN
20040712,224514,4170,32.624833,-117.247833,20.462,33.500,NaN,NaN
20040712,224544,4200,32.625000,-117.247667,20.468,33.501,NaN,NaN
20040712,224615,4231,32.625000,-117.247667,20.462,33.501,NaN,NaN
20040712,224645,4261,32.625000,-117.247500,20.448,33.501,NaN,NaN
20040712,224714,4290,32.625000,-117.247500,20.426,33.504,NaN,NaN
20040712,224744,4320,32.624833,-117.247333,20.168,33.516,NaN,NaN
20040712,224815,4351,32.624833,-117.247167,19.197,33.531,NaN,NaN
20040712,224845,4381,32.624833,-117.247167,18.434,33.428,NaN,NaN
20040712,224914,4410,32.624667,-117.247000,18.181,33.421,NaN,NaN
20040712,224944,4440,32.624500,-117.246833,18.120,33.435,NaN,NaN
20040712,225014,4470,32.624333,-117.246667,18.044,33.423,NaN,NaN
20040712,225045,4501,32.624167,-117.246500,18.083,33.410,NaN,NaN
20040712,225115,4531,32.624167,-117.246333,18.189,33.402,NaN,NaN
20040712,225144,4560,32.624000,-117.246333,18.360,33.424,NaN,NaN
20040712,225214,4590,32.623833,-117.246167,18.443,33.429,NaN,NaN
20040712,225245,4621,32.623667,-117.246167,18.591,33.423,NaN,NaN
20040712,225315,4651,32.623500,-117.246000,18.595,33.432,NaN,NaN
20040712,225344,4680,32.623500,-117.245833,19.083,33.429,NaN,NaN
20040712,225414,4710,32.623833,-117.245667,19.347,33.432,NaN,NaN
20040712,225444,4740,32.624333,-117.245333,19.800,33.474,NaN,NaN
20040712,225515,4771,32.624833,-117.245167,19.968,33.486,NaN,NaN
20040712,225545,4801,32.625167,-117.245167,20.068,33.488,NaN,NaN
20040712,225614,4830,32.625167,-117.245167,20.109,33.492,NaN,NaN
20040712,225644,4860,32.625333,-117.245167,20.121,33.493,NaN,NaN
20040712,225715,4891,32.625333,-117.245167,20.142,33.491,NaN,NaN
20040712,225745,4921,32.625333,-117.245167,20.162,33.496,NaN,NaN
20040712,225814,4950,32.625500,-117.245167,20.187,33.495,NaN,NaN
20040712,225844,4980,32.625500,-117.245167,20.194,33.496,NaN,NaN
20040712,225914,5010,32.625500,-117.245000,20.048,33.510,NaN,NaN
20040712,225945,5041,32.625333,-117.245000,19.037,33.489,NaN,NaN
20040712,230015,5071,32.625333,-117.244833,18.551,33.447,NaN,NaN
20040712,230044,5100,32.625333,-117.244667,18.617,33.431,NaN,NaN
20040712,230114,5130,32.625333,-117.244667,18.617,33.445,NaN,NaN
20040712,230145,5161,32.625333,-117.244333,18.524,33.443,NaN,NaN
20040712,230215,5191,32.625167,-117.244167,18.332,33.441,NaN,NaN
20040712,230244,5220,32.625333,-117.243833,18.202,33.435,NaN,NaN
20040712,230314,5250,32.625333,-117.243667,18.100,33.423,NaN,NaN
20040712,230345,5281,32.625333,-117.243500,17.968,33.422,NaN,NaN
20040712,230415,5311,32.625333,-117.243500,17.940,33.425,NaN,NaN
20040712,230445,5341,32.625333,-117.243333,17.927,33.414,NaN,NaN
20040712,230514,5370,32.625500,-117.243167,18.191,33.418,NaN,NaN
20040712,230544,5400,32.625500,-117.243167,18.573,33.418,NaN,NaN
20040712,230615,5431,32.625500,-117.243000,18.923,33.438,NaN,NaN
20040712,230645,5461,32.625500,-117.243000,19.158,33.465,NaN,NaN
20040712,230714,5490,32.625667,-117.243000,19.154,33.479,NaN,NaN
20040712,230744,5520,32.625667,-117.242833,19.198,33.484,NaN,NaN
20040712,230814,5550,32.625667,-117.242833,18.934,33.459,NaN,NaN
20040712,230845,5581,32.625667,-117.242833,18.740,33.483,NaN,NaN
20040712,230915,5611,32.625833,-117.242667,18.504,33.452,NaN,NaN
20040712,230944,5640,32.625833,-117.242667,18.166,33.448,NaN,NaN
20040712,231014,5670,32.625833,-117.242667,17.747,33.460,NaN,NaN
20040712,231045,5701,32.625833,-117.242667,17.494,33.422,NaN,NaN
20040712,231115,5731,32.625833,-117.242667,17.351,33.414,NaN,NaN
20040712,231144,5760,32.625833,-117.242500,17.140,33.408,NaN,NaN
20040712,231214,5790,32.625833,-117.242500,17.072,33.393,NaN,NaN
20040712,231244,5820,32.625833,-117.242500,17.068,33.397,NaN,NaN
20040712,231315,5851,32.625833,-117.242500,17.127,33.391,NaN,NaN
20040712,231345,5881,32.625833,-117.242333,17.595,33.396,NaN,NaN
20040712,231414,5910,32.625833,-117.242333,18.151,33.418,NaN,NaN
20040712,231444,5940,32.625833,-117.242333,18.486,33.433,NaN,NaN
20040712,231515,5971,32.625833,-117.242167,18.912,33.429,NaN,NaN
20040712,231545,6001,32.626000,-117.242167,19.332,33.418,NaN,NaN
20040712,231614,6030,32.626000,-117.242000,19.537,33.446,NaN,NaN
20040712,231644,6060,32.626000,-117.242000,19.484,33.483,NaN,NaN
20040712,231714,6090,32.626000,-117.242000,19.519,33.474,NaN,NaN
20040712,231745,6121,32.626000,-117.241833,19.474,33.477,NaN,NaN
20040712,231815,6151,32.626000,-117.241833,19.271,33.481,NaN,NaN
20040712,231844,6180,32.626000,-117.241667,18.871,33.471,NaN,NaN
20040712,231914,6210,32.626000,-117.241667,18.503,33.455,NaN,NaN
20040712,231945,6241,32.626000,-117.241667,17.755,33.518,NaN,NaN
20040712,232015,6271,32.626000,-117.241500,17.092,33.443,NaN,NaN
20040712,232044,6300,32.626000,-117.241500,16.062,33.441,NaN,NaN
20040712,232114,6330,32.626000,-117.241500,15.714,33.388,NaN,NaN
20040712,232144,6360,32.626000,-117.241333,15.484,33.387,NaN,NaN
20040712,232215,6391,32.626000,-117.241333,15.276,33.408,NaN,NaN
20040712,232245,6421,32.625833,-117.241333,15.164,33.385,NaN,NaN
20040712,232314,6450,32.625833,-117.241333,15.022,33.397,NaN,NaN
20040712,232344,6480,32.625833,-117.241167,14.948,33.362,NaN,NaN
20040712,232415,6511,32.625833,-117.241167,15.209,33.341,NaN,NaN
20040712,232445,6541,32.625833,-117.241167,15.638,33.349,NaN,NaN
20040712,232514,6570,32.625833,-117.241167,15.683,33.396,NaN,NaN
20040712,232544,6600,32.625833,-117.241167,15.859,33.384,NaN,NaN
20040712,232615,6631,32.625833,-117.241000,15.695,33.379,NaN,NaN
20040712,232645,6661,32.625833,-117.240833,16.360,33.340,NaN,NaN
20040712,232715,6691,32.625667,-117.240667,17.235,33.388,NaN,NaN
20040712,232744,6720,32.625667,-117.240500,17.678,33.414,NaN,NaN
20040712,232814,6750,32.625667,-117.240500,18.234,33.414,NaN,NaN
20040712,232845,6781,32.625500,-117.240333,18.942,33.408,NaN,NaN
20040712,232915,6811,32.625500,-117.240167,19.085,33.501,NaN,NaN
20040712,232944,6840,32.625500,-117.240167,18.452,33.498,NaN,NaN
20040712,233014,6870,32.625500,-117.240167,18.057,33.442,NaN,NaN
20040712,233044,6900,32.625333,-117.240000,17.571,33.435,NaN,NaN
20040712,233115,6931,32.625333,-117.240000,17.298,33.421,NaN,NaN
20040712,233145,6961,32.625333,-117.239833,17.261,33.414,NaN,NaN
20040712,233214,6990,32.625167,-117.239833,17.254,33.412,NaN,NaN
20040712,233244,7020,32.625167,-117.239833,17.123,33.416,NaN,NaN
20040712,233315,7051,32.625167,-117.239833,16.959,33.404,NaN,NaN
20040712,233345,7081,32.625000,-117.239833,16.932,33.396,NaN,NaN
20040712,233414,7110,32.625000,-117.239833,16.849,33.400,NaN,NaN
20040712,233444,7140,32.625000,-117.239667,16.775,33.392,NaN,NaN
20040712,233514,7170,32.624833,-117.239667,16.694,33.378,NaN,NaN
20040712,233545,7201,32.624833,-117.239667,16.836,33.369,NaN,NaN
20040712,233615,7231,32.624667,-117.239667,16.933,33.385,NaN,NaN
20040712,233644,7260,32.624667,-117.239667,16.861,33.391,NaN,NaN
20040712,233714,7290,32.624500,-117.239500,16.883,33.377,NaN,NaN
20040712,233745,7321,32.624500,-117.239333,17.083,33.394,NaN,NaN
20040712,233815,7351,32.624667,-117.239000,17.307,33.383,NaN,NaN
20040712,233844,7380,32.624833,-117.238833,18.533,33.369,NaN,NaN
20040712,233914,7410,32.625333,-117.238833,19.352,33.486,NaN,NaN
20040712,233944,7440,32.626000,-117.238833,19.787,33.471,NaN,NaN
20040712,234015,7471,32.626667,-117.238833,19.932,33.481,NaN,NaN
20040712,234045,7501,32.627667,-117.238833,20.051,33.493,NaN,NaN
20040712,234114,7530,32.628667,-117.238833,20.079,33.503,NaN,NaN
20040712,234144,7560,32.629667,-117.238667,20.184,33.484,NaN,NaN
20040712,234215,7591,32.630833,-117.238667,20.217,33.490,NaN,NaN
20040712,234245,7621,32.631833,-117.238667,20.164,33.495,NaN,NaN
20040712,234314,7650,32.632833,-117.238667,20.054,33.498,NaN,NaN
20040712,234344,7680,32.633333,-117.238667,19.902,33.500,NaN,NaN
20040712,234414,7710,32.633833,-117.238667,19.850,33.490,NaN,NaN
20040712,234445,7741,32.634000,-117.238833,19.913,33.484,NaN,NaN
20040712,234515,7771,32.634167,-117.239000,19.969,33.484,NaN,NaN
20040712,234544,7800,32.634333,-117.239000,19.980,33.490,NaN,NaN
20040712,234614,7830,32.634333,-117.239167,19.999,33.487,NaN,NaN
20040712,234645,7861,32.634500,-117.239167,20.005,33.489,NaN,NaN
20040712,234715,7891,32.634500,-117.239167,20.027,33.487,NaN,NaN
20040712,234744,7920,32.634500,-117.239167,20.046,33.490,NaN,NaN
20040712,234814,7950,32.634500,-117.239167,20.040,33.490,NaN,NaN
20040712,234845,7981,32.634500,-117.239167,20.034,33.491,NaN,NaN
20040712,234915,8011,32.634500,-117.239000,19.824,33.496,NaN,NaN
20040712,234945,8041,32.634500,-117.239000,19.746,33.488,NaN,NaN
20040712,235014,8070,32.634500,-117.238833,19.629,33.479,NaN,NaN
20040712,235044,8100,32.634500,-117.238667,19.036,33.484,NaN,NaN
20040712,235115,8131,32.634500,-117.238667,18.859,33.476,NaN,NaN
20040712,235145,8161,32.634333,-117.238500,18.782,33.452,NaN,NaN
20040712,235214,8190,32.634333,-117.238333,18.922,33.458,NaN,NaN
20040712,235244,8220,32.634167,-117.238333,18.305,33.509,NaN,NaN
20040712,235314,8250,32.634167,-117.238333,17.406,33.495,NaN,NaN
20040712,235345,8281,32.634000,-117.238333,16.600,33.447,NaN,NaN
20040712,235415,8311,32.634000,-117.238167,16.622,33.385,NaN,NaN
20040712,235444,8340,32.633833,-117.238167,17.369,33.356,NaN,NaN
20040712,235514,8370,32.633833,-117.238167,17.991,33.426,NaN,NaN
20040712,235545,8401,32.633667,-117.238167,17.817,33.454,NaN,NaN
20040712,235615,8431,32.633667,-117.238167,17.818,33.433,NaN,NaN
20040712,235644,8460,32.633667,-117.238167,17.909,33.456,NaN,NaN
20040712,235714,8490,32.633500,-117.238167,17.349,33.409,NaN,NaN
20040712,235744,8520,32.633333,-117.238167,17.283,33.419,NaN,NaN
20040712,235815,8551,32.633333,-117.238167,17.320,33.401,NaN,NaN
20040712,235845,8581,32.633333,-117.238167,17.208,33.433,NaN,NaN
20040712,235914,8610,32.633167,-117.238167,17.179,33.414,NaN,NaN
20040712,235944,8640,32.633167,-117.238167,17.060,33.417,NaN,NaN
